Weather History for Olathe New Century, KS

Change the Weather History Date:

Friday, December 7, 2012

  Actual Average Record
Temperature  
Mean Temperature 46 °F -  
Max Temperature 50 °F 43 °F 62 °F (2001)
Min Temperature 39 °F 26 °F 1 °F (2013)
Degree Days  
Heating Degree Days 19    
Moisture  
Dew Point 41 °F    
Average Humidity 87    
Maximum Humidity 93    
Minimum Humidity 76    
Precipitation  
Precipitation 0.01 in - - ()
Sea Level Pressure  
Sea Level Pressure 29.90 in    
Wind  
Wind Speed 7 mph (North)    
Max Wind Speed 12 mph    
Max Gust Speed -    
Visibility 6 miles    
Events Rain    
Averages and records for this station are not official NWS values.
T = Trace of Precipitation, MM = Missing Value Source: NWS Daily Summary

Daily Weather History Graph

Daily Weather History Graph

Search for Another Location

Airport:

Trip Planner

Search our weather history database for the weather conditions in past years. The results will help you decide how hot, cold, wet, or windy it might be!

Date:

Astronomy

Dec. 07, 2012 Rise Set
Actual Time 7:24 AM CST 4:57 PM CST
Civil Twilight 6:55 AM CST 5:27 PM CST
Nautical Twilight 6:22 AM CST 6:00 PM CST
Astronomical Twilight 5:49 AM CST 6:32 PM CST
Moon 12:48 AM CST (12/7) 12:52 PM CST (12/7)
Length of Visible Light 10h 31m
Length of Day
9h 32m
Last Quarter, 38% of the Moon is Illuminated
Dec 7
Last Quarter
Dec 13
New
Dec 19
First Quarter
Dec 28
Full
Jan 4
Last Quarter

Hourly Weather History & Observations

Time (CST) Temp. Windchill Dew Point Humidity Pressure Visibility Wind Dir Wind Speed Gust Speed Precip Events Conditions
12:21 AM 44.6 °F 40.2 °F 42.8 °F 93% 29.91 in 7.0 mi NNW 8.1 mph - 0.00 in Rain Light Rain
12:53 AM 45.0 °F 41.8 °F 42.1 °F 90% 29.91 in 7.0 mi North 5.8 mph - 0.00 in   Overcast
1:53 AM 45.0 °F 41.8 °F 42.1 °F 90% 29.91 in 8.0 mi North 5.8 mph - N/A   Overcast
2:06 AM 44.6 °F 41.4 °F 42.8 °F 93% 29.91 in 8.0 mi North 5.8 mph - N/A   Overcast
2:18 AM 44.6 °F 41.4 °F 42.8 °F 93% 29.91 in 8.0 mi North 5.8 mph - N/A   Overcast
2:49 AM 44.6 °F 40.2 °F 41.0 °F 87% 29.91 in 8.0 mi NNW 8.1 mph - N/A   Overcast
2:50 AM 45.0 °F 40.6 °F 41.0 °F 86% 29.92 in 8.0 mi NNW 8.1 mph - N/A   Overcast
3:53 AM 44.1 °F 40.1 °F 41.0 °F 89% 29.91 in 5.0 mi North 6.9 mph - 0.00 in   Overcast
4:45 AM 42.8 °F 37.5 °F 41.0 °F 93% 29.90 in 4.0 mi North 9.2 mph - N/A   Overcast
4:53 AM 43.0 °F 37.7 °F 41.0 °F 93% 29.90 in 5.0 mi NNE 9.2 mph - N/A   Overcast
5:02 AM 42.8 °F 37.0 °F 41.0 °F 93% 29.89 in 5.0 mi NNE 10.4 mph - N/A   Overcast
5:29 AM 44.6 °F 39.7 °F 41.0 °F 87% 29.89 in 5.0 mi NNE 9.2 mph - N/A   Overcast
5:43 AM 44.6 °F 40.7 °F 42.8 °F 93% 29.90 in 5.0 mi North 6.9 mph - N/A   Overcast
5:53 AM 43.0 °F 39.5 °F 41.0 °F 93% 29.90 in 5.0 mi North 5.8 mph - N/A   Overcast
6:53 AM 43.0 °F 41.3 °F 41.0 °F 93% 29.91 in 4.0 mi North 3.5 mph - N/A   Overcast
7:53 AM 44.1 °F 41.5 °F 41.0 °F 89% 29.91 in 4.0 mi NE 4.6 mph - N/A   Overcast
8:53 AM 45.0 °F 43.5 °F 41.0 °F 86% 29.92 in 3.0 mi ENE 3.5 mph - N/A   Overcast
9:53 AM 46.0 °F 43.1 °F 42.1 °F 86% 29.92 in 4.0 mi East 5.8 mph - N/A   Overcast
10:53 AM 46.9 °F - 42.1 °F 83% 29.91 in 4.0 mi ESE 3.5 mph - N/A   Haze
11:53 AM 48.0 °F - 42.1 °F 80% 29.88 in 4.0 mi East 4.6 mph - N/A   Haze
12:37 PM 50.0 °F - 42.8 °F 76% 29.87 in 5.0 mi Calm Calm - N/A   Haze
12:53 PM 48.9 °F - 42.1 °F 77% 29.87 in 5.0 mi Calm Calm - N/A   Haze
1:53 PM 48.9 °F - 42.1 °F 77% 29.86 in 5.0 mi NW 3.5 mph - N/A   Haze
2:53 PM 48.9 °F - 42.1 °F 77% 29.86 in 5.0 mi NW 8.1 mph - N/A   Haze
3:53 PM 48.0 °F - 42.1 °F 80% 29.87 in 4.0 mi North 8.1 mph - N/A   Haze
4:53 PM 46.0 °F 42.5 °F 41.0 °F 83% 29.88 in 4.0 mi North 6.9 mph - N/A   Haze
5:46 PM 44.6 °F 42.2 °F 39.2 °F 81% 29.88 in 6.0 mi NNE 4.6 mph - N/A   Haze
5:53 PM 44.1 °F 40.1 °F 39.9 °F 85% 29.89 in 6.0 mi North 6.9 mph - N/A   Overcast
6:00 PM 44.6 °F 41.4 °F 39.2 °F 81% 29.88 in 6.0 mi North 5.8 mph - N/A   Overcast
7:05 PM 44.6 °F 38.8 °F 41.0 °F 87% 29.88 in 6.0 mi North 11.5 mph - N/A   Overcast
7:53 PM 44.1 °F 38.6 °F 39.9 °F 85% 29.92 in 7.0 mi North 10.4 mph - N/A   Scattered Clouds
8:53 PM 44.1 °F 42.5 °F 39.9 °F 85% 29.91 in 6.0 mi NNE 3.5 mph - 0.00 in Rain Light Rain
9:53 PM 43.0 °F 39.5 °F 39.9 °F 89% 29.93 in 5.0 mi West 5.8 mph - 0.01 in   Overcast
10:11 PM 42.8 °F 39.3 °F 41.0 °F 93% 29.93 in 5.0 mi NW 5.8 mph - N/A   Overcast
10:53 PM 42.1 °F 37.7 °F 39.0 °F 89% 29.94 in 6.0 mi NNW 6.9 mph - N/A   Mostly Cloudy
11:53 PM 39.9 °F 36.7 °F 37.9 °F 93% 29.95 in 5.0 mi NW 4.6 mph - N/A   Partly Cloudy